TimeCDT,TemperatureF,Dew PointF,Humidity,Sea Level PressureIn,VisibilityMPH,Wind Direction,Wind SpeedMPH,Gust SpeedMPH,PrecipitationIn,Events,Conditions,WindDirDegrees,DateUTC
12:17 AM,42.8,35.6,76,29.99,10.0,South,8.1,-,N/A,,Clear,180,2013-03-30 05:17:00
12:38 AM,42.8,35.6,76,29.99,10.0,South,9.2,-,N/A,,Clear,180,2013-03-30 05:38:00
12:57 AM,42.8,33.8,70,29.97,10.0,South,11.5,-,N/A,,Clear,180,2013-03-30 05:57:00
1:17 AM,46.4,37.4,71,29.96,10.0,SW,11.5,21.9,N/A,Thunderstorm,Clear,220,2013-03-30 06:17:00
1:37 AM,50.0,39.2,66,29.96,10.0,SSW,10.4,21.9,N/A,,Clear,210,2013-03-30 06:37:00
1:57 AM,46.4,39.2,76,29.96,10.0,South,8.1,-,N/A,,Clear,180,2013-03-30 06:57:00
2:17 AM,50.0,41.0,71,29.95,10.0,SW,16.1,21.9,N/A,,Clear,230,2013-03-30 07:17:00
2:37 AM,50.0,42.8,76,29.94,10.0,SW,15.0,18.4,N/A,,Clear,220,2013-03-30 07:37:00
2:57 AM,51.8,42.8,71,29.93,10.0,SSW,17.3,-,N/A,,Clear,210,2013-03-30 07:57:00
3:17 AM,50.0,42.8,76,29.94,10.0,SW,12.7,-,N/A,,Clear,230,2013-03-30 08:17:00
3:37 AM,50.0,42.8,76,29.93,10.0,SW,15.0,-,N/A,,Clear,220,2013-03-30 08:37:00
3:57 AM,48.2,41.0,76,29.93,10.0,SW,12.7,20.7,N/A,,Clear,220,2013-03-30 08:57:00
4:17 AM,46.4,41.0,81,29.93,10.0,SSW,11.5,-,N/A,,Scattered Clouds,210,2013-03-30 09:17:00
4:37 AM,44.6,41.0,87,29.94,10.0,SW,11.5,-,N/A,,Scattered Clouds,220,2013-03-30 09:37:00
4:58 AM,46.4,41.0,81,29.93,10.0,SSW,19.6,23.0,N/A,,Scattered Clouds,210,2013-03-30 09:58:00
5:17 AM,46.4,41.0,81,29.92,10.0,SSW,19.6,24.2,N/A,,Mostly Cloudy,200,2013-03-30 10:17:00
5:37 AM,46.4,41.0,81,29.92,10.0,SSW,19.6,-,N/A,,Overcast,200,2013-03-30 10:37:00
5:58 AM,46.4,42.8,87,29.91,10.0,South,16.1,-,N/A,,Mostly Cloudy,190,2013-03-30 10:58:00
6:17 AM,44.6,42.8,93,29.92,10.0,SSW,17.3,-,N/A,,Scattered Clouds,200,2013-03-30 11:17:00
6:37 AM,44.6,42.8,93,29.92,7.0,SSW,15.0,-,N/A,,Mostly Cloudy,200,2013-03-30 11:37:00
6:58 AM,44.6,42.8,93,29.93,7.0,SW,12.7,-,N/A,,Overcast,220,2013-03-30 11:58:00
7:17 AM,44.6,42.8,93,29.94,10.0,West,11.5,19.6,N/A,,Overcast,260,2013-03-30 12:17:00
7:37 AM,44.6,41.0,87,29.94,7.0,SW,10.4,-,N/A,,Overcast,220,2013-03-30 12:37:00
7:58 AM,44.6,41.0,87,29.94,7.0,SW,9.2,-,N/A,,Overcast,220,2013-03-30 12:58:00
8:17 AM,44.6,41.0,87,29.94,7.0,SW,6.9,-,N/A,,Overcast,230,2013-03-30 13:17:00
8:37 AM,44.6,42.8,93,29.94,7.0,WSW,8.1,-,N/A,,Overcast,240,2013-03-30 13:37:00
8:57 AM,46.4,42.8,87,29.94,7.0,WSW,8.1,-,N/A,,Overcast,240,2013-03-30 13:57:00
9:17 AM,46.4,42.8,87,29.94,7.0,West,8.1,-,N/A,,Overcast,270,2013-03-30 14:17:00
9:37 AM,44.6,41.0,87,29.94,7.0,West,8.1,-,N/A,,Overcast,270,2013-03-30 14:37:00
9:57 AM,46.4,41.0,81,29.94,7.0,NW,10.4,-,N/A,,Overcast,310,2013-03-30 14:57:00
10:17 AM,46.4,41.0,81,29.95,7.0,NNW,8.1,-,N/A,,Overcast,330,2013-03-30 15:17:00
10:37 AM,46.4,41.0,81,29.95,7.0,NNW,8.1,-,N/A,,Mostly Cloudy,330,2013-03-30 15:37:00
10:57 AM,50.0,41.0,71,29.95,7.0,NW,8.1,-,N/A,,Mostly Cloudy,320,2013-03-30 15:57:00
11:17 AM,51.8,41.0,67,29.94,10.0,NNW,8.1,-,N/A,,Scattered Clouds,340,2013-03-30 16:17:00
11:37 AM,53.6,42.8,67,29.94,10.0,NNW,6.9,-,N/A,,Clear,340,2013-03-30 16:37:00
11:57 AM,55.4,41.0,58,29.94,10.0,North,9.2,-,N/A,,Clear,360,2013-03-30 16:57:00
12:17 PM,55.4,41.0,58,29.94,10.0,NNW,10.4,-,N/A,,Clear,340,2013-03-30 17:17:00
12:37 PM,55.4,41.0,58,29.94,10.0,NNW,11.5,16.1,N/A,,Clear,330,2013-03-30 17:37:00
12:57 PM,55.4,41.0,58,29.94,10.0,NNW,11.5,17.3,N/A,,Clear,330,2013-03-30 17:57:00
1:17 PM,55.4,41.0,58,29.95,10.0,NNW,11.5,16.1,N/A,,Clear,330,2013-03-30 18:17:00
1:37 PM,55.4,41.0,58,29.95,10.0,NW,10.4,16.1,N/A,,Clear,320,2013-03-30 18:37:00
1:57 PM,55.4,41.0,58,29.94,10.0,NW,12.7,17.3,N/A,,Clear,320,2013-03-30 18:57:00
2:17 PM,55.4,37.4,51,29.94,10.0,NW,11.5,18.4,N/A,,Scattered Clouds,320,2013-03-30 19:17:00
2:37 PM,57.2,37.4,48,29.93,10.0,NW,13.8,21.9,N/A,,Clear,310,2013-03-30 19:37:00
2:57 PM,57.2,37.4,48,29.92,10.0,NW,17.3,23.0,N/A,,Clear,320,2013-03-30 19:57:00
3:17 PM,59.0,37.4,45,29.92,10.0,NNW,15.0,21.9,N/A,,Clear,330,2013-03-30 20:17:00
3:37 PM,59.0,35.6,42,29.92,10.0,NW,19.6,23.0,N/A,,Clear,320,2013-03-30 20:37:00
3:57 PM,59.0,35.6,42,29.92,10.0,NNW,15.0,21.9,N/A,,Clear,330,2013-03-30 20:57:00
4:17 PM,59.0,35.6,42,29.91,10.0,NW,15.0,20.7,N/A,,Clear,310,2013-03-30 21:17:00
4:37 PM,59.0,35.6,42,29.91,10.0,NW,13.8,20.7,N/A,,Clear,320,2013-03-30 21:37:00
4:57 PM,57.2,35.6,44,29.91,10.0,NNW,13.8,19.6,N/A,,Clear,330,2013-03-30 21:57:00
5:17 PM,57.2,37.4,48,29.91,10.0,NW,13.8,18.4,N/A,,Clear,310,2013-03-30 22:17:00
5:37 PM,55.4,37.4,51,29.91,10.0,NNW,13.8,-,N/A,,Clear,330,2013-03-30 22:37:00
5:57 PM,57.2,39.2,51,29.91,10.0,NNW,12.7,-,N/A,,Scattered Clouds,340,2013-03-30 22:57:00
6:17 PM,55.4,37.4,51,29.91,10.0,NNW,12.7,-,N/A,,Scattered Clouds,340,2013-03-30 23:17:00
6:37 PM,53.6,37.4,54,29.91,10.0,NNW,11.5,-,N/A,Thunderstorm,Clear,340,2013-03-30 23:37:00
6:58 PM,51.8,37.4,58,29.92,10.0,NNW,13.8,-,N/A,,Clear,340,2013-03-30 23:58:00
7:17 PM,50.0,39.2,66,29.92,10.0,NNW,10.4,-,N/A,,Clear,340,2013-03-31 00:17:00
7:37 PM,50.0,37.4,62,29.92,10.0,NNW,8.1,-,N/A,,Clear,340,2013-03-31 00:37:00
7:58 PM,46.4,37.4,71,29.92,10.0,NNW,8.1,-,N/A,,Clear,340,2013-03-31 00:58:00
8:17 PM,44.6,37.4,76,29.93,10.0,NNW,9.2,-,N/A,,Clear,340,2013-03-31 01:17:00
8:37 PM,42.8,37.4,81,29.93,7.0,NNW,6.9,-,N/A,,Clear,330,2013-03-31 01:37:00
8:57 PM,41.0,35.6,81,29.93,7.0,NW,8.1,-,N/A,,Clear,320,2013-03-31 01:57:00
9:17 PM,41.0,35.6,81,29.94,7.0,NW,6.9,-,N/A,,Clear,310,2013-03-31 02:17:00
9:37 PM,39.2,35.6,87,29.94,7.0,NNW,3.5,-,N/A,,Clear,330,2013-03-31 02:37:00
9:57 PM,37.4,33.8,87,29.95,5.0,NNW,4.6,-,N/A,,Clear,330,2013-03-31 02:57:00
10:17 PM,37.4,35.6,93,29.95,4.0,NW,9.2,-,N/A,,Clear,320,2013-03-31 03:17:00
10:37 PM,35.6,33.8,93,29.95,3.0,NNW,6.9,-,N/A,,Scattered Clouds,340,2013-03-31 03:37:00
10:57 PM,35.6,33.8,93,29.95,0.5,NNW,8.1,-,N/A,Fog,Fog,340,2013-03-31 03:57:00
11:17 PM,35.6,33.8,93,29.95,0.2,NNW,6.9,-,N/A,Fog,Fog,330,2013-03-31 04:17:00
11:37 PM,35.6,33.8,93,29.94,0.2,NW,5.8,-,N/A,Fog,Fog,320,2013-03-31 04:37:00
11:57 PM,35.6,33.8,93,29.95,0.2,NNW,8.1,-,N/A,Fog,Fog,330,2013-03-31 04:57:00